Location: Untermarchtal
(48.2403°N, 9.6117°E)
Time: 04:07:18
(UTC+02:00)

ISS - Pass Details

Date: 28 September 2020
Orbit: 418 x 420 km, 51.6° (Epoch: 20 October)

Event Time Altitude Azimuth Distance (km) Brightness Sun altitude
Rises 20:15:23 0° 284° (WNW) 2,368 2.2 -12.3°
Reaches altitude 10° 20:17:32 10° 290° (WNW) 1,504 0.5 -12.7°
Maximum altitude 20:20:48 46° 6° (N) 574 -3.1 -13.2°
Enters shadow 20:22:41 22° 70° (ENE) 981 -2.4 -13.5°
